Time,TemperatureF,DewpointF,PressureIn,WindDirection,WindDirectionDegrees,WindSpeedMPH,WindSpeedGustMPH,Humidity,HourlyPrecipIn,Conditions,Clouds,dailyrainin,SolarRadiationWatts/m^2,SoftwareType,DateUTC
2013-02-23 00:01:00,33.0,33.0,-100.00,WNW,285,2.0,5.0,100,0.00,,,1.05,0.000000,,2013-02-23 08:01:00,
2013-02-23 00:11:00,33.0,33.0,-100.00,WNW,285,2.0,5.0,100,0.00,,,1.05,0.000000,,2013-02-23 08:11:00,
2013-02-23 00:32:00,33.0,33.0,-100.00,WNW,285,2.0,5.0,100,0.01,,,1.06,0.000000,,2013-02-23 08:32:00,
2013-02-23 00:42:00,33.0,33.0,-100.00,WNW,285,2.0,5.0,100,0.01,,,1.06,0.000000,,2013-02-23 08:42:00,
2013-02-23 00:52:00,33.0,33.0,-100.00,WNW,285,2.0,5.0,100,0.01,,,1.06,0.000000,,2013-02-23 08:52:00,
2013-02-23 01:01:00,33.0,33.0,-100.00,WNW,285,2.0,5.0,100,0.01,,,1.06,0.000000,,2013-02-23 09:01:00,
2013-02-23 01:11:00,33.0,33.0,-100.00,WNW,285,2.0,5.0,100,0.01,,,1.06,0.000000,,2013-02-23 09:11:00,
2013-02-23 01:32:00,33.0,33.0,-100.00,West,275,3.0,9.0,100,0.02,,,1.08,0.000000,,2013-02-23 09:32:00,
2013-02-23 01:42:00,33.0,33.0,-100.00,West,275,3.0,9.0,100,0.02,,,1.08,0.000000,,2013-02-23 09:42:00,
2013-02-23 01:52:00,33.0,33.0,-100.00,West,275,3.0,9.0,100,0.02,,,1.08,0.000000,,2013-02-23 09:52:00,
2013-02-23 02:01:00,33.0,33.0,-100.00,West,275,3.0,9.0,100,0.02,,,1.08,0.000000,,2013-02-23 10:01:00,
2013-02-23 02:11:00,33.0,33.0,-100.00,West,275,3.0,9.0,100,0.02,,,1.08,0.000000,,2013-02-23 10:11:00,
2013-02-23 02:32:00,33.0,33.0,-100.00,NNE,14,1.0,5.0,100,0.01,,,1.08,0.000000,,2013-02-23 10:32:00,
2013-02-23 02:42:00,33.0,33.0,-100.00,NNE,14,1.0,5.0,100,0.01,,,1.08,0.000000,,2013-02-23 10:42:00,
2013-02-23 02:52:00,33.0,33.0,-100.00,NNE,14,1.0,5.0,100,0.01,,,1.08,0.000000,,2013-02-23 10:52:00,
2013-02-23 03:02:00,33.0,33.0,-100.00,NNE,14,1.0,5.0,100,0.01,,,1.08,0.000000,,2013-02-23 11:02:00,
2013-02-23 03:11:00,33.0,33.0,-100.00,NNE,14,1.0,5.0,100,0.01,,,1.08,0.000000,,2013-02-23 11:11:00,
2013-02-23 03:42:00,33.0,33.0,-100.00,NW,312,1.0,4.0,100,0.03,,,1.11,0.000000,,2013-02-23 11:42:00,
2013-02-23 03:52:00,33.0,33.0,-100.00,NW,312,1.0,4.0,100,0.03,,,1.11,0.000000,,2013-02-23 11:52:00,
2013-02-23 04:01:00,33.0,33.0,-100.00,NW,312,1.0,4.0,100,0.03,,,1.11,0.000000,,2013-02-23 12:01:00,
2013-02-23 04:11:00,33.0,33.0,-100.00,NW,312,1.0,4.0,100,0.03,,,1.11,0.000000,,2013-02-23 12:11:00,
2013-02-23 04:32:00,34.0,34.0,-100.00,NW,312,1.0,3.0,100,0.01,,,1.12,0.000000,,2013-02-23 12:32:00,
2013-02-23 04:42:00,34.0,34.0,-100.00,NW,312,1.0,3.0,100,0.01,,,1.12,0.000000,,2013-02-23 12:42:00,
2013-02-23 04:52:00,34.0,34.0,-100.00,NW,312,1.0,3.0,100,0.01,,,1.12,0.000000,,2013-02-23 12:52:00,
2013-02-23 05:01:00,34.0,34.0,-100.00,NW,312,1.0,3.0,100,0.01,,,1.12,0.000000,,2013-02-23 13:01:00,
2013-02-23 05:11:00,34.0,34.0,-100.00,NW,312,1.0,3.0,100,0.01,,,1.12,0.000000,,2013-02-23 13:11:00,
2013-02-23 05:32:00,34.0,34.0,-100.00,NW,313,1.0,10.0,100,0.05,,,1.17,0.000000,,2013-02-23 13:32:00,
2013-02-23 05:42:00,34.0,34.0,-100.00,NW,313,1.0,10.0,100,0.05,,,1.17,0.000000,,2013-02-23 13:42:00,
2013-02-23 05:52:00,34.0,34.0,-100.00,NW,313,1.0,10.0,100,0.05,,,1.17,0.000000,,2013-02-23 13:52:00,
2013-02-23 06:02:00,34.0,34.0,-100.00,NW,313,1.0,10.0,100,0.05,,,1.17,0.000000,,2013-02-23 14:02:00,
2013-02-23 06:11:00,34.0,34.0,-100.00,NW,313,1.0,10.0,100,0.05,,,1.17,0.000000,,2013-02-23 14:11:00,
2013-02-23 06:33:00,34.0,34.0,-100.00,NW,306,1.0,4.0,100,0.01,,,-99.99,0.000000,,2013-02-23 14:33:00,
2013-02-23 06:42:00,34.0,34.0,-100.00,NW,306,1.0,4.0,100,0.01,,,-99.99,0.000000,,2013-02-23 14:42:00,
2013-02-23 06:52:00,34.0,34.0,-100.00,NW,306,1.0,4.0,100,0.01,,,-99.99,0.000000,,2013-02-23 14:52:00,
2013-02-23 07:01:00,34.0,34.0,-100.00,NW,306,1.0,4.0,100,0.01,,,-99.99,0.000000,,2013-02-23 15:01:00,
2013-02-23 07:11:00,34.0,34.0,-100.00,NW,306,1.0,4.0,100,0.01,,,-99.99,0.000000,,2013-02-23 15:11:00,
2013-02-23 07:32:00,34.0,34.0,-100.00,WNW,299,1.0,4.0,100,0.00,,,1.17,0.000000,,2013-02-23 15:32:00,
2013-02-23 07:42:00,34.0,34.0,-100.00,WNW,299,1.0,4.0,100,0.00,,,1.17,0.000000,,2013-02-23 15:42:00,
2013-02-23 07:52:00,34.0,34.0,-100.00,WNW,299,1.0,4.0,100,0.00,,,1.17,0.000000,,2013-02-23 15:52:00,
2013-02-23 08:01:00,34.0,34.0,-100.00,WNW,299,1.0,4.0,100,0.00,,,1.17,0.000000,,2013-02-23 16:01:00,
2013-02-23 08:11:00,34.0,34.0,-100.00,WNW,299,1.0,4.0,100,0.00,,,1.17,0.000000,,2013-02-23 16:11:00,
2013-02-23 08:32:00,34.0,34.0,-100.00,NW,319,1.0,6.0,100,0.02,,,1.14,13.000000,,2013-02-23 16:32:00,
2013-02-23 08:42:00,34.0,34.0,-100.00,NW,319,1.0,6.0,100,0.02,,,1.14,13.000000,,2013-02-23 16:42:00,
2013-02-23 08:52:00,34.0,34.0,-100.00,NW,319,1.0,6.0,100,0.02,,,1.14,13.000000,,2013-02-23 16:52:00,
2013-02-23 09:01:00,34.0,34.0,-100.00,NW,319,1.0,6.0,100,0.02,,,1.14,13.000000,,2013-02-23 17:01:00,
2013-02-23 09:11:00,34.0,34.0,-100.00,NW,319,1.0,6.0,100,0.02,,,1.14,13.000000,,2013-02-23 17:11:00,
2013-02-23 09:12:00,36.0,36.0,-100.00,WSW,250,1.0,4.0,100,0.01,,,1.04,55.000000,,2013-02-23 17:12:00,
2013-02-23 09:32:00,36.0,36.0,-100.00,WSW,250,1.0,4.0,100,0.01,,,1.04,55.000000,,2013-02-23 17:32:00,
2013-02-23 09:42:00,36.0,36.0,-100.00,WSW,250,1.0,4.0,100,0.01,,,1.04,55.000000,,2013-02-23 17:42:00,
2013-02-23 09:52:00,36.0,36.0,-100.00,WSW,250,1.0,4.0,100,0.01,,,1.04,55.000000,,2013-02-23 17:52:00,
2013-02-23 10:01:00,36.0,36.0,-100.00,WSW,250,1.0,4.0,100,0.01,,,1.04,55.000000,,2013-02-23 18:01:00,
2013-02-23 10:32:00,37.0,37.0,-100.00,WNW,289,1.0,3.0,100,0.01,,,0.87,87.000000,,2013-02-23 18:32:00,
2013-02-23 10:42:00,37.0,37.0,-100.00,WNW,289,1.0,3.0,100,0.01,,,0.87,87.000000,,2013-02-23 18:42:00,
2013-02-23 10:52:00,37.0,37.0,-100.00,WNW,289,1.0,3.0,100,0.01,,,0.87,87.000000,,2013-02-23 18:52:00,
2013-02-23 11:01:00,37.0,37.0,-100.00,WNW,289,1.0,3.0,100,0.01,,,0.87,87.000000,,2013-02-23 19:01:00,
2013-02-23 11:11:00,37.0,37.0,-100.00,WNW,289,1.0,3.0,100,0.01,,,0.87,87.000000,,2013-02-23 19:11:00,
2013-02-23 11:32:00,38.0,38.0,-100.00,NW,310,2.0,5.0,100,0.01,,,0.70,237.000000,,2013-02-23 19:32:00,
2013-02-23 11:42:00,38.0,38.0,-100.00,NW,310,2.0,5.0,100,0.01,,,0.70,237.000000,,2013-02-23 19:42:00,
2013-02-23 11:52:00,38.0,38.0,-100.00,NW,310,2.0,5.0,100,0.01,,,0.70,237.000000,,2013-02-23 19:52:00,
2013-02-23 12:01:00,38.0,38.0,-100.00,NW,310,2.0,5.0,100,0.01,,,0.70,237.000000,,2013-02-23 20:01:00,
2013-02-23 12:11:00,38.0,38.0,-100.00,NW,310,2.0,5.0,100,0.01,,,0.70,237.000000,,2013-02-23 20:11:00,
2013-02-23 12:32:00,38.0,38.0,-100.00,NW,311,2.0,10.0,100,0.00,,,0.55,305.000000,,2013-02-23 20:32:00,
2013-02-23 12:42:00,38.0,38.0,-100.00,NW,311,2.0,10.0,100,0.00,,,0.55,305.000000,,2013-02-23 20:42:00,
2013-02-23 12:52:00,38.0,38.0,-100.00,NW,311,2.0,10.0,100,0.00,,,0.55,305.000000,,2013-02-23 20:52:00,
2013-02-23 13:01:00,38.0,38.0,-100.00,NW,311,2.0,10.0,100,0.00,,,0.55,305.000000,,2013-02-23 21:01:00,
2013-02-23 13:11:00,38.0,38.0,-100.00,NW,311,2.0,10.0,100,0.00,,,0.55,305.000000,,2013-02-23 21:11:00,
2013-02-23 13:42:00,40.0,39.0,-100.00,WNW,301,3.0,11.0,97,0.00,,,0.35,247.000000,,2013-02-23 21:42:00,
2013-02-23 13:52:00,40.0,39.0,-100.00,WNW,301,3.0,11.0,97,0.00,,,0.35,247.000000,,2013-02-23 21:52:00,
2013-02-23 14:01:00,40.0,39.0,-100.00,WNW,301,3.0,11.0,97,0.00,,,0.35,247.000000,,2013-02-23 22:01:00,
2013-02-23 14:11:00,40.0,39.0,-100.00,WNW,301,3.0,11.0,97,0.00,,,0.35,247.000000,,2013-02-23 22:11:00,
2013-02-23 14:42:00,40.0,36.0,-100.00,NW,306,3.0,10.0,87,0.00,,,0.23,355.000000,,2013-02-23 22:42:00,
2013-02-23 14:52:00,40.0,36.0,-100.00,NW,306,3.0,10.0,87,0.00,,,0.23,355.000000,,2013-02-23 22:52:00,
2013-02-23 15:01:00,40.0,36.0,-100.00,NW,306,3.0,10.0,87,0.00,,,0.23,355.000000,,2013-02-23 23:01:00,
2013-02-23 15:11:00,40.0,36.0,-100.00,NW,306,3.0,10.0,87,0.00,,,0.23,355.000000,,2013-02-23 23:11:00,
2013-02-23 15:32:00,40.0,36.0,-100.00,NW,305,3.0,11.0,87,0.00,,,0.22,140.000000,,2013-02-23 23:32:00,
2013-02-23 15:42:00,40.0,36.0,-100.00,NW,305,3.0,11.0,87,0.00,,,0.22,140.000000,,2013-02-23 23:42:00,
2013-02-23 15:52:00,40.0,36.0,-100.00,NW,305,3.0,11.0,87,0.00,,,0.22,140.000000,,2013-02-23 23:52:00,
2013-02-23 16:01:00,40.0,36.0,-100.00,NW,305,3.0,11.0,87,0.00,,,0.22,140.000000,,2013-02-24 00:01:00,
2013-02-23 16:11:00,40.0,36.0,-100.00,NW,305,3.0,11.0,87,0.00,,,0.22,140.000000,,2013-02-24 00:11:00,
2013-02-23 16:32:00,39.0,35.0,-100.00,NW,313,2.0,7.0,85,0.00,,,0.22,67.000000,,2013-02-24 00:32:00,
2013-02-23 16:42:00,39.0,35.0,-100.00,NW,313,2.0,7.0,85,0.00,,,0.22,67.000000,,2013-02-24 00:42:00,
2013-02-23 16:52:00,39.0,35.0,-100.00,NW,313,2.0,7.0,85,0.00,,,0.22,67.000000,,2013-02-24 00:52:00,
2013-02-23 17:01:00,39.0,35.0,-100.00,NW,313,2.0,7.0,85,0.00,,,0.22,67.000000,,2013-02-24 01:01:00,
2013-02-23 17:11:00,39.0,35.0,-100.00,NW,313,2.0,7.0,85,0.00,,,0.22,67.000000,,2013-02-24 01:11:00,
2013-02-23 17:32:00,37.0,35.0,-100.00,NW,307,2.0,5.0,93,0.00,,,0.22,32.000000,,2013-02-24 01:32:00,
2013-02-23 17:42:00,37.0,35.0,-100.00,NW,307,2.0,5.0,93,0.00,,,0.22,32.000000,,2013-02-24 01:42:00,
2013-02-23 17:52:00,37.0,35.0,-100.00,NW,307,2.0,5.0,93,0.00,,,0.22,32.000000,,2013-02-24 01:52:00,
2013-02-23 18:01:00,37.0,35.0,-100.00,NW,307,2.0,5.0,93,0.00,,,0.22,32.000000,,2013-02-24 02:01:00,
2013-02-23 18:11:00,37.0,35.0,-100.00,NW,307,2.0,5.0,93,0.00,,,0.22,32.000000,,2013-02-24 02:11:00,
2013-02-23 18:42:00,36.0,35.0,-100.00,NW,317,0.0,5.0,97,0.00,,,0.21,7.000000,,2013-02-24 02:42:00,
2013-02-23 18:52:00,36.0,35.0,-100.00,NW,317,0.0,5.0,97,0.00,,,0.21,7.000000,,2013-02-24 02:52:00,
2013-02-23 19:01:00,36.0,35.0,-100.00,NW,317,0.0,5.0,97,0.00,,,0.21,7.000000,,2013-02-24 03:01:00,
2013-02-23 19:11:00,36.0,35.0,-100.00,NW,317,0.0,5.0,97,0.00,,,0.21,7.000000,,2013-02-24 03:11:00,
2013-02-23 19:32:00,35.0,35.0,-100.00,SSW,196,1.0,4.0,99,0.01,,,0.22,0.000000,,2013-02-24 03:32:00,
2013-02-23 19:42:00,35.0,35.0,-100.00,SSW,196,1.0,4.0,99,0.01,,,0.22,0.000000,,2013-02-24 03:42:00,
2013-02-23 19:52:00,35.0,35.0,-100.00,SSW,196,1.0,4.0,99,0.01,,,0.22,0.000000,,2013-02-24 03:52:00,
2013-02-23 20:01:00,35.0,35.0,-100.00,SSW,196,1.0,4.0,99,0.01,,,0.22,0.000000,,2013-02-24 04:01:00,
2013-02-23 20:11:00,35.0,35.0,-100.00,SSW,196,1.0,4.0,99,0.01,,,0.22,0.000000,,2013-02-24 04:11:00,
2013-02-23 20:32:00,35.0,35.0,-100.00,West,280,1.0,3.0,99,0.00,,,0.22,0.000000,,2013-02-24 04:32:00,
2013-02-23 20:42:00,35.0,35.0,-100.00,West,280,1.0,3.0,99,0.00,,,0.22,0.000000,,2013-02-24 04:42:00,
2013-02-23 20:52:00,35.0,35.0,-100.00,West,280,1.0,3.0,99,0.00,,,0.22,0.000000,,2013-02-24 04:52:00,
2013-02-23 21:01:00,35.0,35.0,-100.00,West,280,1.0,3.0,99,0.00,,,0.22,0.000000,,2013-02-24 05:01:00,
2013-02-23 21:11:00,35.0,35.0,-100.00,West,280,1.0,3.0,99,0.00,,,0.22,0.000000,,2013-02-24 05:11:00,
2013-02-23 21:32:00,34.0,34.0,-100.00,NNE,24,1.0,3.0,100,0.00,,,0.21,0.000000,,2013-02-24 05:32:00,
2013-02-23 21:42:00,34.0,34.0,-100.00,NNE,24,1.0,3.0,100,0.00,,,0.21,0.000000,,2013-02-24 05:42:00,
2013-02-23 21:52:00,34.0,34.0,-100.00,NNE,24,1.0,3.0,100,0.00,,,0.21,0.000000,,2013-02-24 05:52:00,
2013-02-23 22:01:00,34.0,34.0,-100.00,NNE,24,1.0,3.0,100,0.00,,,0.21,0.000000,,2013-02-24 06:01:00,
2013-02-23 22:11:00,34.0,34.0,-100.00,NNE,24,1.0,3.0,100,0.00,,,0.21,0.000000,,2013-02-24 06:11:00,
2013-02-23 22:32:00,35.0,35.0,-100.00,NW,326,1.0,2.0,100,0.00,,,0.20,0.000000,,2013-02-24 06:32:00,
2013-02-23 22:42:00,35.0,35.0,-100.00,NW,326,1.0,2.0,100,0.00,,,0.20,0.000000,,2013-02-24 06:42:00,
2013-02-23 22:52:00,35.0,35.0,-100.00,NW,326,1.0,2.0,100,0.00,,,0.20,0.000000,,2013-02-24 06:52:00,
2013-02-23 23:01:00,35.0,35.0,-100.00,NW,326,1.0,2.0,100,0.00,,,0.20,0.000000,,2013-02-24 07:01:00,
2013-02-23 23:11:00,35.0,35.0,-100.00,NW,326,1.0,2.0,100,0.00,,,0.20,0.000000,,2013-02-24 07:11:00,
2013-02-23 23:32:00,35.0,35.0,-100.00,ENE,67,1.0,4.0,100,0.00,,,0.20,0.000000,,2013-02-24 07:32:00,
2013-02-23 23:42:00,35.0,35.0,-100.00,ENE,67,1.0,4.0,100,0.00,,,0.20,0.000000,,2013-02-24 07:42:00,
2013-02-23 23:52:00,35.0,35.0,-100.00,ENE,67,1.0,4.0,100,0.00,,,0.20,0.000000,,2013-02-24 07:52:00,